Location: Marcé
(47.5801°N, 0.3280°W)
Time: 14:24:46
(UTC+01:00)

Explorer 7 - Pass Details

Date: 09 December 2021
Orbit: 483 x 674 km, 50.3° (Epoch: 19 January)

Event Time Altitude Azimuth Distance (km) Brightness Sun altitude
Rises 06:30:23 0° 260° (W) 2,860 - -20.5°
Reaches altitude 10° 06:32:45 10° 262° (W) 1,925 - -20.1°
Exits shadow 06:36:11 51° 283° (WNW) 729 7.0 -19.5°
Maximum altitude 06:37:08 70° 346° (NNW) 605 6.8 -19.3°
Drops below altitude 10° 06:41:15 10° 72° (ENE) 1,807 10.3 -18.7°
Sets 06:43:25 0° 74° (ENE) 2,669 11.4 -18.3°
